Torna al catalogo

STARLINK-35003

AttivoComunicazioniVLEO
NORAD 65413·PAYLOAD·🇺🇸 United States

Lanciato Aug 31, 2025 da Cape Canaveral Space Force Station

Loading…

Prossimi Passaggi (prossime 24 ore)

TLE

AggiornatoSource: CelesTrak SupGP

Epoca: Sep 14, 2026, 21:43 UTC

1 65413C 25192K   26257.90534722  .00014711  00000+0  43478-3 0  2571
2 65413  53.1579  71.5424 0001188  86.7923 180.8082 15.34373108    10

Traccia STARLINK-35003 in tempo reale con AllMySat

Download on the App Store